Year,Month,Day,Hour,Minute,Value (Times are PST for temperature in C)
2023,03,27,00,00,2.90
2023,03,27,00,01,2.90
2023,03,27,00,02,2.90
2023,03,27,00,03,2.90
2023,03,27,00,04,2.90
2023,03,27,00,05,2.90
2023,03,27,00,06,2.90
2023,03,27,00,07,2.90
2023,03,27,00,08,2.90
2023,03,27,00,09,2.90
2023,03,27,00,10,2.90
2023,03,27,00,11,2.90
2023,03,27,00,12,2.90
2023,03,27,00,13,2.90
2023,03,27,00,14,2.90
2023,03,27,00,15,2.90
2023,03,27,00,16,2.90
2023,03,27,00,17,2.90
2023,03,27,00,18,2.90
2023,03,27,00,19,2.90
2023,03,27,00,20,2.90
2023,03,27,00,21,2.90
2023,03,27,00,22,2.90
2023,03,27,00,23,2.90
2023,03,27,00,24,2.90
2023,03,27,00,25,2.90
2023,03,27,00,26,2.90
2023,03,27,00,27,2.90
2023,03,27,00,28,2.90
2023,03,27,00,29,2.90
2023,03,27,00,30,2.90
2023,03,27,00,31,2.90
2023,03,27,00,32,2.90
2023,03,27,00,33,2.90
2023,03,27,00,34,2.90
2023,03,27,00,35,2.90
2023,03,27,00,36,2.90
2023,03,27,00,37,2.90
2023,03,27,00,38,2.90
2023,03,27,00,39,2.90
2023,03,27,00,40,2.90
2023,03,27,00,41,2.90
2023,03,27,00,42,2.90
2023,03,27,00,43,2.90
2023,03,27,00,44,2.90
2023,03,27,00,45,2.90
2023,03,27,00,46,2.90
2023,03,27,00,47,3.00
2023,03,27,00,48,3.00
2023,03,27,00,49,3.00
2023,03,27,00,50,3.00
2023,03,27,00,51,3.00
2023,03,27,00,52,3.00
2023,03,27,00,53,3.10
2023,03,27,00,54,3.10
2023,03,27,00,55,3.10
2023,03,27,00,56,3.10
2023,03,27,00,57,3.10
2023,03,27,00,58,3.20
2023,03,27,00,59,3.20
2023,03,27,01,00,3.20
2023,03,27,01,01,3.30
2023,03,27,01,02,3.30
2023,03,27,01,03,3.30
2023,03,27,01,04,3.30
2023,03,27,01,05,3.30
2023,03,27,01,06,3.30
2023,03,27,01,07,3.40
2023,03,27,01,08,3.40
2023,03,27,01,09,3.40
2023,03,27,01,10,3.50
2023,03,27,01,11,3.50
2023,03,27,01,12,3.60
2023,03,27,01,13,3.60
2023,03,27,01,14,3.60
2023,03,27,01,15,3.60
2023,03,27,01,16,3.70
2023,03,27,01,17,3.70
2023,03,27,01,18,3.70
2023,03,27,01,19,3.80
2023,03,27,01,20,3.80
2023,03,27,01,21,3.80
2023,03,27,01,22,3.90
2023,03,27,01,23,3.90
2023,03,27,01,24,3.90
2023,03,27,01,25,3.90
2023,03,27,01,26,4.00
2023,03,27,01,27,4.00
2023,03,27,01,28,4.00
2023,03,27,01,29,4.10
2023,03,27,01,30,4.10
2023,03,27,01,31,4.10
2023,03,27,01,32,4.10
2023,03,27,01,33,4.20
2023,03,27,01,34,4.20
2023,03,27,01,35,4.20
2023,03,27,01,36,4.20
2023,03,27,01,37,4.30
2023,03,27,01,38,4.30
2023,03,27,01,39,4.30
2023,03,27,01,40,4.30
2023,03,27,01,41,4.30
2023,03,27,01,42,4.30
2023,03,27,01,43,4.30
2023,03,27,01,44,4.30
2023,03,27,01,45,4.40
2023,03,27,01,46,4.40
2023,03,27,01,47,4.40
2023,03,27,01,48,4.40
2023,03,27,01,49,4.40
2023,03,27,01,50,4.40
2023,03,27,01,51,4.40
2023,03,27,01,52,4.40
2023,03,27,01,53,4.40
2023,03,27,01,54,4.40
2023,03,27,01,55,4.40
2023,03,27,01,56,4.40
2023,03,27,01,57,4.40
2023,03,27,01,58,4.50
2023,03,27,01,59,4.50
2023,03,27,02,00,4.50
2023,03,27,02,01,4.50
2023,03,27,02,02,4.50
2023,03,27,02,03,4.50
2023,03,27,02,04,4.50
2023,03,27,02,05,4.50
2023,03,27,02,06,4.50
2023,03,27,02,07,4.50
2023,03,27,02,08,4.50
2023,03,27,02,09,4.50
2023,03,27,02,10,4.50
2023,03,27,02,11,4.50
2023,03,27,02,12,4.50
2023,03,27,02,13,4.50
2023,03,27,02,14,4.50
2023,03,27,02,15,4.40
2023,03,27,02,16,4.40
2023,03,27,02,17,4.40
2023,03,27,02,18,4.40
2023,03,27,02,19,4.40
2023,03,27,02,20,4.40
2023,03,27,02,21,4.30
2023,03,27,02,22,4.30
2023,03,27,02,23,4.30
2023,03,27,02,24,4.30
2023,03,27,02,25,4.30
2023,03,27,02,26,4.30
2023,03,27,02,27,4.30
2023,03,27,02,28,4.30
2023,03,27,02,29,4.30
2023,03,27,02,30,4.30
2023,03,27,02,31,4.20
2023,03,27,02,32,4.20
2023,03,27,02,33,4.20
2023,03,27,02,34,4.20
2023,03,27,02,35,4.20
2023,03,27,02,36,4.20
2023,03,27,02,37,4.20
2023,03,27,02,38,4.20
2023,03,27,02,39,4.20
2023,03,27,02,40,4.10
2023,03,27,02,41,4.10
2023,03,27,02,42,4.10
2023,03,27,02,43,4.10
2023,03,27,02,44,4.10
2023,03,27,02,45,4.10
2023,03,27,02,46,4.10
2023,03,27,02,47,4.10
2023,03,27,02,48,4.10
2023,03,27,02,49,4.10
2023,03,27,02,50,4.10
2023,03,27,02,51,4.00
2023,03,27,02,52,4.00
2023,03,27,02,53,4.00
2023,03,27,02,54,4.00
2023,03,27,02,55,3.90
2023,03,27,02,56,3.90
2023,03,27,02,57,3.90
2023,03,27,02,58,3.90
2023,03,27,02,59,3.90
2023,03,27,03,00,3.90
2023,03,27,03,01,3.90
2023,03,27,03,02,3.90
2023,03,27,03,03,3.90
2023,03,27,03,04,3.90
2023,03,27,03,05,3.80
2023,03,27,03,06,3.80
2023,03,27,03,07,3.80
2023,03,27,03,08,3.80
2023,03,27,03,09,3.80
2023,03,27,03,10,3.80
2023,03,27,03,11,3.80
2023,03,27,03,12,3.80
2023,03,27,03,13,3.80
2023,03,27,03,14,3.80
2023,03,27,03,15,3.80
2023,03,27,03,16,3.80
2023,03,27,03,17,3.90
2023,03,27,03,18,3.90
2023,03,27,03,19,3.90
2023,03,27,03,20,3.90
2023,03,27,03,21,3.90
2023,03,27,03,22,3.90
2023,03,27,03,23,3.90
2023,03,27,03,24,4.00
2023,03,27,03,25,4.00
2023,03,27,03,26,4.10
2023,03,27,03,27,4.10
2023,03,27,03,28,4.10
2023,03,27,03,29,4.20
2023,03,27,03,30,4.20
2023,03,27,03,31,4.20
2023,03,27,03,32,4.20
2023,03,27,03,33,4.30
2023,03,27,03,34,4.30
2023,03,27,03,35,4.30
2023,03,27,03,36,4.30
2023,03,27,03,37,4.30
2023,03,27,03,38,4.30
2023,03,27,03,39,4.30
2023,03,27,03,40,4.30
2023,03,27,03,41,4.30
2023,03,27,03,42,4.40
2023,03,27,03,43,4.40
2023,03,27,03,44,4.40
2023,03,27,03,45,4.50
2023,03,27,03,46,4.50
2023,03,27,03,47,4.50
2023,03,27,03,48,4.60
2023,03,27,03,49,4.60
2023,03,27,03,50,4.60
2023,03,27,03,51,4.60
2023,03,27,03,52,4.60
2023,03,27,03,53,4.60
2023,03,27,03,54,4.50
2023,03,27,03,55,4.50
2023,03,27,03,56,4.50
2023,03,27,03,57,4.50
2023,03,27,03,58,4.40
2023,03,27,03,59,4.40
2023,03,27,04,00,4.40
2023,03,27,04,01,4.40
2023,03,27,04,02,4.30
2023,03,27,04,03,4.30
2023,03,27,04,04,4.30
2023,03,27,04,05,4.30
2023,03,27,04,06,4.30
2023,03,27,04,07,4.20
2023,03,27,04,08,4.30
2023,03,27,04,09,4.20
2023,03,27,04,10,4.20
2023,03,27,04,11,4.20
2023,03,27,04,12,4.20
2023,03,27,04,13,4.20
2023,03,27,04,14,4.20
2023,03,27,04,15,4.20
2023,03,27,04,16,4.20
2023,03,27,04,17,4.20
2023,03,27,04,18,4.20
2023,03,27,04,19,4.10
2023,03,27,04,20,4.10
2023,03,27,04,21,4.10
2023,03,27,04,22,4.10
2023,03,27,04,23,4.10
2023,03,27,04,24,4.10
2023,03,27,04,25,4.10
2023,03,27,04,26,4.10
2023,03,27,04,27,4.10
2023,03,27,04,28,4.00
2023,03,27,04,29,4.00
2023,03,27,04,30,4.00
2023,03,27,04,31,4.00
2023,03,27,04,32,4.00
2023,03,27,04,33,4.00
2023,03,27,04,34,4.00
2023,03,27,04,35,4.00
2023,03,27,04,36,3.90
2023,03,27,04,37,3.90
2023,03,27,04,38,3.90
2023,03,27,04,39,3.90
2023,03,27,04,40,3.90
2023,03,27,04,41,3.80
2023,03,27,04,42,3.80
2023,03,27,04,43,3.80
2023,03,27,04,44,3.80
2023,03,27,04,45,3.80
2023,03,27,04,46,3.80
2023,03,27,04,47,3.80
2023,03,27,04,48,3.80
2023,03,27,04,49,3.80
2023,03,27,04,50,3.80
2023,03,27,04,51,3.80
2023,03,27,04,52,3.80
2023,03,27,04,53,3.80
2023,03,27,04,54,3.80
2023,03,27,04,55,3.70
2023,03,27,04,56,3.70
2023,03,27,04,57,3.70
2023,03,27,04,58,3.70
2023,03,27,04,59,3.70
2023,03,27,05,00,3.70
2023,03,27,05,01,3.70
2023,03,27,05,02,3.70
2023,03,27,05,03,3.70
2023,03,27,05,04,3.70
2023,03,27,05,05,3.70
2023,03,27,05,06,3.70
2023,03,27,05,07,3.70
2023,03,27,05,08,3.70
2023,03,27,05,09,3.70
2023,03,27,05,10,3.60
2023,03,27,05,11,3.60
2023,03,27,05,12,3.60
2023,03,27,05,13,3.60
2023,03,27,05,14,3.60
2023,03,27,05,15,3.60
2023,03,27,05,16,3.60
2023,03,27,05,17,3.60
2023,03,27,05,18,3.60
2023,03,27,05,19,3.60
2023,03,27,05,20,3.50
2023,03,27,05,21,3.50
2023,03,27,05,22,3.50
2023,03,27,05,23,3.40
2023,03,27,05,24,3.40
2023,03,27,05,25,3.40
2023,03,27,05,26,3.40
2023,03,27,05,27,3.40
2023,03,27,05,28,3.40
2023,03,27,05,29,3.30
2023,03,27,05,30,3.30
2023,03,27,05,31,3.30
2023,03,27,05,32,3.30
2023,03,27,05,33,3.30
2023,03,27,05,34,3.30
2023,03,27,05,35,3.30
2023,03,27,05,36,3.30
2023,03,27,05,37,3.30
2023,03,27,05,38,3.30
2023,03,27,05,39,3.30
2023,03,27,05,40,3.30
2023,03,27,05,41,3.30
2023,03,27,05,42,3.30
2023,03,27,05,43,3.30
2023,03,27,05,44,3.30
2023,03,27,05,45,3.30
2023,03,27,05,46,3.30
2023,03,27,05,47,3.30
2023,03,27,05,48,3.30
2023,03,27,05,49,3.30
2023,03,27,05,50,3.30
2023,03,27,05,51,3.30
2023,03,27,05,52,3.30
2023,03,27,05,53,3.40
2023,03,27,05,54,3.40
2023,03,27,05,55,3.40
2023,03,27,05,56,3.40
2023,03,27,05,57,3.40
2023,03,27,05,58,3.40
2023,03,27,05,59,3.40
2023,03,27,06,00,3.40
2023,03,27,06,01,3.40
2023,03,27,06,02,3.50
2023,03,27,06,03,3.40
2023,03,27,06,04,3.40
2023,03,27,06,05,3.40
2023,03,27,06,06,3.40
2023,03,27,06,07,3.50
2023,03,27,06,08,3.40
2023,03,27,06,09,3.40
2023,03,27,06,10,3.40
2023,03,27,06,11,3.40
2023,03,27,06,12,3.40
2023,03,27,06,13,3.40
2023,03,27,06,14,3.40
2023,03,27,06,15,3.40
2023,03,27,06,16,3.40
2023,03,27,06,17,3.40
2023,03,27,06,18,3.40
2023,03,27,06,19,3.40
2023,03,27,06,20,3.40
2023,03,27,06,21,3.40
2023,03,27,06,22,3.40
2023,03,27,06,23,3.40
2023,03,27,06,24,3.30
2023,03,27,06,25,3.30
2023,03,27,06,26,3.30
2023,03,27,06,27,3.30
2023,03,27,06,28,3.30
2023,03,27,06,29,3.30
2023,03,27,06,30,3.30
2023,03,27,06,31,3.20
2023,03,27,06,32,3.20
2023,03,27,06,33,3.20
2023,03,27,06,34,3.20
2023,03,27,06,35,3.10
2023,03,27,06,36,3.10
2023,03,27,06,37,3.10
2023,03,27,06,38,3.10
2023,03,27,06,39,3.10
2023,03,27,06,40,3.10
2023,03,27,06,41,3.10
2023,03,27,06,42,3.10
2023,03,27,06,43,3.10
2023,03,27,06,44,3.10
2023,03,27,06,45,3.00
2023,03,27,06,46,3.00
2023,03,27,06,47,3.00
2023,03,27,06,48,3.00
2023,03,27,06,49,3.00
2023,03,27,06,50,3.00
2023,03,27,06,51,3.00
2023,03,27,06,52,3.00
2023,03,27,06,53,3.00
2023,03,27,06,54,2.90
2023,03,27,06,55,2.90
2023,03,27,06,56,2.90
2023,03,27,06,57,2.90
2023,03,27,06,58,2.90
2023,03,27,06,59,2.90
2023,03,27,07,00,2.90
2023,03,27,07,01,2.90
2023,03,27,07,02,2.90
2023,03,27,07,03,2.80
2023,03,27,07,04,2.90
2023,03,27,07,05,2.80
2023,03,27,07,06,2.80
2023,03,27,07,07,2.80
2023,03,27,07,08,2.80
2023,03,27,07,09,2.80
2023,03,27,07,10,2.80
2023,03,27,07,11,2.80
2023,03,27,07,12,2.80
2023,03,27,07,13,2.80
2023,03,27,07,14,2.80
2023,03,27,07,15,2.80
2023,03,27,07,16,2.80
2023,03,27,07,17,2.80
2023,03,27,07,18,2.80
2023,03,27,07,19,2.80
2023,03,27,07,20,2.80
2023,03,27,07,21,2.80
2023,03,27,07,22,2.70
2023,03,27,07,23,2.80
2023,03,27,07,24,2.70
2023,03,27,07,25,2.70
2023,03,27,07,26,2.70
2023,03,27,07,27,2.70
2023,03,27,07,28,2.70
2023,03,27,07,29,2.70
2023,03,27,07,30,2.70
2023,03,27,07,31,2.70
2023,03,27,07,32,2.70
2023,03,27,07,33,2.70
2023,03,27,07,34,2.70
2023,03,27,07,35,2.70
2023,03,27,07,36,2.70
2023,03,27,07,37,2.70
2023,03,27,07,38,2.70
2023,03,27,07,39,2.60
2023,03,27,07,40,2.60
2023,03,27,07,41,2.70
2023,03,27,07,42,2.60
2023,03,27,07,43,2.60
2023,03,27,07,44,2.60
2023,03,27,07,45,2.60
2023,03,27,07,46,2.60
2023,03,27,07,47,2.60
2023,03,27,07,48,2.60
2023,03,27,07,49,2.60
2023,03,27,07,50,2.60
2023,03,27,07,51,2.60
2023,03,27,07,52,2.60
2023,03,27,07,53,2.60
2023,03,27,07,54,2.60
2023,03,27,07,55,2.60
2023,03,27,07,56,2.60
2023,03,27,07,57,2.50
2023,03,27,07,58,2.50
2023,03,27,07,59,2.50
2023,03,27,08,00,2.50
2023,03,27,08,01,2.50
2023,03,27,08,02,2.40
2023,03,27,08,03,2.40
2023,03,27,08,04,2.40
2023,03,27,08,05,2.40
2023,03,27,08,06,2.40
2023,03,27,08,07,2.40
2023,03,27,08,08,2.40
2023,03,27,08,09,2.30
2023,03,27,08,10,2.30
2023,03,27,08,11,2.30
2023,03,27,08,12,2.30
2023,03,27,08,13,2.30
2023,03,27,08,14,2.30
2023,03,27,08,15,2.30
2023,03,27,08,16,2.30
2023,03,27,08,17,2.30
2023,03,27,08,18,2.30
2023,03,27,08,19,2.30
2023,03,27,08,20,2.30
2023,03,27,08,21,2.30
2023,03,27,08,22,2.30
2023,03,27,08,23,2.30
2023,03,27,08,24,2.30
2023,03,27,08,25,2.30
2023,03,27,08,26,2.30
2023,03,27,08,27,2.30
2023,03,27,08,28,2.30
2023,03,27,08,29,2.30
2023,03,27,08,30,2.30
2023,03,27,08,31,2.40
2023,03,27,08,32,2.40
2023,03,27,08,33,2.40
2023,03,27,08,34,2.40
2023,03,27,08,35,2.50
2023,03,27,08,36,2.50
2023,03,27,08,37,2.60
2023,03,27,08,38,2.60
2023,03,27,08,39,2.60
2023,03,27,08,40,2.70
2023,03,27,08,41,2.70
2023,03,27,08,42,2.70
2023,03,27,08,43,2.70
2023,03,27,08,44,2.80
2023,03,27,08,45,2.80
2023,03,27,08,46,2.80
2023,03,27,08,47,2.90
2023,03,27,08,48,2.90
2023,03,27,08,49,3.00
2023,03,27,08,50,3.10
2023,03,27,08,51,3.10
2023,03,27,08,52,3.20
2023,03,27,08,53,3.20
2023,03,27,08,54,3.30
2023,03,27,08,55,3.30
2023,03,27,08,56,3.30
2023,03,27,08,57,3.40
2023,03,27,08,58,3.40
2023,03,27,08,59,3.40
2023,03,27,09,00,3.40
2023,03,27,09,01,3.40
2023,03,27,09,02,3.50
2023,03,27,09,03,3.50
2023,03,27,09,04,3.50
2023,03,27,09,05,3.60
2023,03,27,09,06,3.60
2023,03,27,09,07,3.60
2023,03,27,09,08,3.60
2023,03,27,09,09,3.70
2023,03,27,09,10,3.70
2023,03,27,09,11,3.70
2023,03,27,09,12,3.70
2023,03,27,09,13,3.80
2023,03,27,09,14,3.80
2023,03,27,09,15,3.80
2023,03,27,09,16,3.80
2023,03,27,09,17,3.80
2023,03,27,09,18,3.80
2023,03,27,09,19,3.80
2023,03,27,09,20,3.90
2023,03,27,09,21,3.90
2023,03,27,09,22,3.90
2023,03,27,09,23,4.00
2023,03,27,09,24,4.00
2023,03,27,09,25,4.00
2023,03,27,09,26,4.10
2023,03,27,09,27,4.10
2023,03,27,09,28,4.10
2023,03,27,09,29,4.10
2023,03,27,09,30,4.10
2023,03,27,09,31,4.10
2023,03,27,09,32,4.20
2023,03,27,09,33,4.20
2023,03,27,09,34,4.20
2023,03,27,09,35,4.20
2023,03,27,09,36,4.20
2023,03,27,09,37,4.20
2023,03,27,09,38,4.20
2023,03,27,09,39,4.30
2023,03,27,09,40,4.30
2023,03,27,09,41,4.30
2023,03,27,09,42,4.30
2023,03,27,09,43,4.30
2023,03,27,09,44,4.40
2023,03,27,09,45,4.40
2023,03,27,09,46,4.40
2023,03,27,09,47,4.40
2023,03,27,09,48,4.40
2023,03,27,09,49,4.50
2023,03,27,09,50,4.50
2023,03,27,09,51,4.50
2023,03,27,09,52,4.50
2023,03,27,09,53,4.60
2023,03,27,09,54,4.60
2023,03,27,09,55,4.60
2023,03,27,09,56,4.60
2023,03,27,09,57,4.70
2023,03,27,09,58,4.70
2023,03,27,09,59,4.70
2023,03,27,10,00,4.70
2023,03,27,10,01,4.80
2023,03,27,10,02,4.80
2023,03,27,10,03,4.80
2023,03,27,10,04,4.90
2023,03,27,10,05,4.90
2023,03,27,10,06,4.90
2023,03,27,10,07,5.00
2023,03,27,10,08,5.00
2023,03,27,10,09,5.00
2023,03,27,10,10,5.10
2023,03,27,10,11,5.10
2023,03,27,10,12,5.10
2023,03,27,10,13,5.20
2023,03,27,10,14,5.20
2023,03,27,10,15,5.30
2023,03,27,10,16,5.30
2023,03,27,10,17,5.40
2023,03,27,10,18,5.40
2023,03,27,10,19,5.40
2023,03,27,10,20,5.50
2023,03,27,10,21,5.50
2023,03,27,10,22,5.60
2023,03,27,10,23,5.60
2023,03,27,10,24,5.60
2023,03,27,10,25,5.70
2023,03,27,10,26,5.70
2023,03,27,10,27,5.80
2023,03,27,10,28,5.80
2023,03,27,10,29,5.80
2023,03,27,10,30,5.80
2023,03,27,10,31,5.90
2023,03,27,10,32,5.90
2023,03,27,10,33,5.90
2023,03,27,10,34,6.00
2023,03,27,10,35,6.00
2023,03,27,10,36,6.00
2023,03,27,10,37,6.10
2023,03,27,10,38,6.10
2023,03,27,10,39,6.20
2023,03,27,10,40,6.20
2023,03,27,10,41,6.30
2023,03,27,10,42,6.30
2023,03,27,10,43,6.30
2023,03,27,10,44,6.40
2023,03,27,10,45,6.40
2023,03,27,10,46,6.50
2023,03,27,10,47,6.60
2023,03,27,10,48,6.60
2023,03,27,10,49,6.70
2023,03,27,10,50,6.70
2023,03,27,10,51,6.70
2023,03,27,10,52,6.80
2023,03,27,10,53,6.80
2023,03,27,10,54,6.90
2023,03,27,10,55,6.90
2023,03,27,10,56,7.00
2023,03,27,10,57,7.00
2023,03,27,10,58,7.00
2023,03,27,10,59,7.10
2023,03,27,11,00,7.10
2023,03,27,11,01,7.20
2023,03,27,11,02,7.20
2023,03,27,11,03,7.20
2023,03,27,11,04,7.20
2023,03,27,11,05,7.30
2023,03,27,11,06,7.30
2023,03,27,11,07,7.30
2023,03,27,11,08,7.30
2023,03,27,11,09,7.40
2023,03,27,11,10,7.40
2023,03,27,11,11,7.40
2023,03,27,11,12,7.40
2023,03,27,11,13,7.40
2023,03,27,11,14,7.50
2023,03,27,11,15,7.50
2023,03,27,11,16,7.50
2023,03,27,11,17,7.60
2023,03,27,11,18,7.60
2023,03,27,11,19,7.60
2023,03,27,11,20,7.70
2023,03,27,11,21,7.70
2023,03,27,11,22,7.70
2023,03,27,11,23,7.80
2023,03,27,11,24,7.80
2023,03,27,11,25,7.90
2023,03,27,11,26,7.90
2023,03,27,11,27,7.90
2023,03,27,11,28,7.90
2023,03,27,11,29,8.00
2023,03,27,11,30,8.00
2023,03,27,11,31,8.00
2023,03,27,11,32,8.00
2023,03,27,11,33,8.00
2023,03,27,11,34,8.10
2023,03,27,11,35,8.10
2023,03,27,11,36,8.20
2023,03,27,11,37,8.20
2023,03,27,11,38,8.30
2023,03,27,11,39,8.30
2023,03,27,11,40,8.30
2023,03,27,11,41,8.30
2023,03,27,11,42,8.40
2023,03,27,11,43,8.40
2023,03,27,11,44,8.40
2023,03,27,11,45,8.40
2023,03,27,11,46,8.40
2023,03,27,11,47,8.50
2023,03,27,11,48,8.50
2023,03,27,11,49,8.60
2023,03,27,11,50,8.50
2023,03,27,11,51,8.50
2023,03,27,11,52,8.50
2023,03,27,11,53,8.40
2023,03,27,11,54,8.40
2023,03,27,11,55,8.30
2023,03,27,11,56,8.20
2023,03,27,11,57,8.20
2023,03,27,11,58,8.20
2023,03,27,11,59,8.20
2023,03,27,12,00,8.20
2023,03,27,12,01,8.20
2023,03,27,12,02,8.20
2023,03,27,12,03,8.20
2023,03,27,12,04,8.20
2023,03,27,12,05,8.20
2023,03,27,12,06,8.20
2023,03,27,12,07,8.20
2023,03,27,12,08,8.20
2023,03,27,12,09,8.30
2023,03,27,12,10,8.30
2023,03,27,12,11,8.30
2023,03,27,12,12,8.30
2023,03,27,12,13,8.30
2023,03,27,12,14,8.30
2023,03,27,12,15,8.30
2023,03,27,12,16,8.40
2023,03,27,12,17,8.40
2023,03,27,12,18,8.40
2023,03,27,12,19,8.50
2023,03,27,12,20,8.60
2023,03,27,12,21,8.70
2023,03,27,12,22,8.70
2023,03,27,12,23,8.80
2023,03,27,12,24,8.80
2023,03,27,12,25,8.80
2023,03,27,12,26,8.80
2023,03,27,12,27,8.70
2023,03,27,12,28,8.60
2023,03,27,12,29,8.60
2023,03,27,12,30,8.50
2023,03,27,12,31,8.50
2023,03,27,12,32,8.50
2023,03,27,12,33,8.40
2023,03,27,12,34,8.30
2023,03,27,12,35,8.30
2023,03,27,12,36,8.30
2023,03,27,12,37,8.30
2023,03,27,12,38,8.20
2023,03,27,12,39,8.20
2023,03,27,12,40,8.20
2023,03,27,12,41,8.20
2023,03,27,12,42,8.20
2023,03,27,12,43,8.20
2023,03,27,12,44,8.30
2023,03,27,12,45,8.30
2023,03,27,12,46,8.30
2023,03,27,12,47,8.30
2023,03,27,12,48,8.30
2023,03,27,12,49,8.30
2023,03,27,12,50,8.30
2023,03,27,12,51,8.40
2023,03,27,12,52,8.40
2023,03,27,12,53,8.50
2023,03,27,12,54,8.60
2023,03,27,12,55,8.60
2023,03,27,12,56,8.60
2023,03,27,12,57,8.60
2023,03,27,12,58,8.60
2023,03,27,12,59,8.70
2023,03,27,13,00,8.70
2023,03,27,13,01,8.70
2023,03,27,13,02,8.70
2023,03,27,13,03,8.80
2023,03,27,13,04,8.80
2023,03,27,13,05,8.80
2023,03,27,13,06,8.80
2023,03,27,13,07,8.80
2023,03,27,13,08,8.90
2023,03,27,13,09,9.00
2023,03,27,13,10,9.00
2023,03,27,13,11,9.00
2023,03,27,13,12,9.10
2023,03,27,13,13,9.10
2023,03,27,13,14,9.20
2023,03,27,13,15,9.20
2023,03,27,13,16,9.30
2023,03,27,13,17,9.30
2023,03,27,13,18,9.30
2023,03,27,13,19,9.40
2023,03,27,13,20,9.40
2023,03,27,13,21,9.50
2023,03,27,13,22,9.50
2023,03,27,13,23,9.60
2023,03,27,13,24,9.60
2023,03,27,13,25,9.60
2023,03,27,13,26,9.70
2023,03,27,13,27,9.70
2023,03,27,13,28,9.70
2023,03,27,13,29,9.70
2023,03,27,13,30,9.80
2023,03,27,13,31,9.80
2023,03,27,13,32,9.80
2023,03,27,13,33,9.80
2023,03,27,13,34,9.80
2023,03,27,13,35,9.80
2023,03,27,13,36,9.80
2023,03,27,13,37,9.70
2023,03,27,13,38,9.70
2023,03,27,13,39,9.70
2023,03,27,13,40,9.70
2023,03,27,13,41,9.70
2023,03,27,13,42,9.70
2023,03,27,13,43,9.70
2023,03,27,13,44,9.70
2023,03,27,13,45,9.70
2023,03,27,13,46,9.70
2023,03,27,13,47,9.70
2023,03,27,13,48,9.70
2023,03,27,13,49,9.70
2023,03,27,13,50,9.60
2023,03,27,13,51,9.60
2023,03,27,13,52,9.50
2023,03,27,13,53,9.50
2023,03,27,13,54,9.50
2023,03,27,13,55,9.50
2023,03,27,13,56,9.50
2023,03,27,13,57,9.40
2023,03,27,13,58,9.30
2023,03,27,13,59,9.20
2023,03,27,14,00,9.20
2023,03,27,14,01,9.20
2023,03,27,14,02,9.10
2023,03,27,14,03,9.10
2023,03,27,14,04,9.10
2023,03,27,14,05,9.00
2023,03,27,14,06,9.00
2023,03,27,14,07,9.00
2023,03,27,14,08,9.00
2023,03,27,14,09,9.10
2023,03,27,14,10,9.10
2023,03,27,14,11,9.10
2023,03,27,14,12,9.20
2023,03,27,14,13,9.20
2023,03,27,14,14,9.20
2023,03,27,14,15,9.20
2023,03,27,14,16,9.20
2023,03,27,14,17,9.20
2023,03,27,14,18,9.20
2023,03,27,14,19,9.20
2023,03,27,14,20,9.20
2023,03,27,14,21,9.20
2023,03,27,14,22,9.20
2023,03,27,14,23,9.30
2023,03,27,14,24,9.30
2023,03,27,14,25,9.30
2023,03,27,14,26,9.30
2023,03,27,14,27,9.30
2023,03,27,14,28,9.30
2023,03,27,14,29,9.30
2023,03,27,14,30,9.40
2023,03,27,14,31,9.50
2023,03,27,14,32,9.50
2023,03,27,14,33,9.60
2023,03,27,14,34,9.60
2023,03,27,14,35,9.70
2023,03,27,14,36,9.80
2023,03,27,14,37,9.80
2023,03,27,14,38,9.80
2023,03,27,14,39,9.80
2023,03,27,14,40,9.80
2023,03,27,14,41,9.70
2023,03,27,14,42,9.60
2023,03,27,14,43,9.60
2023,03,27,14,44,9.50
2023,03,27,14,45,9.50
2023,03,27,14,46,9.50
2023,03,27,14,47,9.50
2023,03,27,14,48,9.40
2023,03,27,14,49,9.40
2023,03,27,14,50,9.40
2023,03,27,14,51,9.40
2023,03,27,14,52,9.30
2023,03,27,14,53,9.30
2023,03,27,14,54,9.30
2023,03,27,14,55,9.40
2023,03,27,14,56,9.30
2023,03,27,14,57,9.30
2023,03,27,14,58,9.40
2023,03,27,14,59,9.40
2023,03,27,15,00,9.50
2023,03,27,15,01,9.50
2023,03,27,15,02,9.50
2023,03,27,15,03,9.50
2023,03,27,15,04,9.50
2023,03,27,15,05,9.60
2023,03,27,15,06,9.60
2023,03,27,15,07,9.60
2023,03,27,15,08,9.70
2023,03,27,15,09,9.70
2023,03,27,15,10,9.80
2023,03,27,15,11,9.90
2023,03,27,15,12,9.90
2023,03,27,15,13,10.00
2023,03,27,15,14,10.00
2023,03,27,15,15,10.10
2023,03,27,15,16,10.10
2023,03,27,15,17,10.10
2023,03,27,15,18,10.20
2023,03,27,15,19,10.20
2023,03,27,15,20,10.20
2023,03,27,15,21,10.10
2023,03,27,15,22,10.10
2023,03,27,15,23,10.00
2023,03,27,15,24,10.00
2023,03,27,15,25,10.00
2023,03,27,15,26,9.90
2023,03,27,15,27,10.00
2023,03,27,15,28,10.00
2023,03,27,15,29,10.00
2023,03,27,15,30,9.90
2023,03,27,15,31,9.90
2023,03,27,15,32,9.90
2023,03,27,15,33,9.90
2023,03,27,15,34,9.90
2023,03,27,15,35,9.90
2023,03,27,15,36,9.80
2023,03,27,15,37,9.80
2023,03,27,15,38,9.70
2023,03,27,15,39,9.70
2023,03,27,15,40,9.70
2023,03,27,15,41,9.60
2023,03,27,15,42,9.60
2023,03,27,15,43,9.50
2023,03,27,15,44,9.50
2023,03,27,15,45,9.40
2023,03,27,15,46,9.30
2023,03,27,15,47,9.20
2023,03,27,15,48,9.20
2023,03,27,15,49,9.20
2023,03,27,15,50,9.20
2023,03,27,15,51,9.30
2023,03,27,15,52,9.30
2023,03,27,15,53,9.20
2023,03,27,15,54,9.20
2023,03,27,15,55,9.20
2023,03,27,15,56,9.20
2023,03,27,15,57,9.20
2023,03,27,15,58,9.20
2023,03,27,15,59,9.20
2023,03,27,16,00,9.20
2023,03,27,16,01,9.20
2023,03,27,16,02,9.20
2023,03,27,16,03,9.20
2023,03,27,16,04,9.20
2023,03,27,16,05,9.20
2023,03,27,16,06,9.20
2023,03,27,16,07,9.20
2023,03,27,16,08,9.20
2023,03,27,16,09,9.30
2023,03,27,16,10,9.30
2023,03,27,16,11,9.30
2023,03,27,16,12,9.40
2023,03,27,16,13,9.40
2023,03,27,16,14,9.40
2023,03,27,16,15,9.50
2023,03,27,16,16,9.50
2023,03,27,16,17,9.40
2023,03,27,16,18,9.40
2023,03,27,16,19,9.40
2023,03,27,16,20,9.40
2023,03,27,16,21,9.30
2023,03,27,16,22,9.30
2023,03,27,16,23,9.20
2023,03,27,16,24,9.10
2023,03,27,16,25,9.10
2023,03,27,16,26,9.10
2023,03,27,16,27,9.10
2023,03,27,16,28,9.20
2023,03,27,16,29,9.20
2023,03,27,16,30,9.30
2023,03,27,16,31,9.30
2023,03,27,16,32,9.30
2023,03,27,16,33,9.40
2023,03,27,16,34,9.40
2023,03,27,16,35,9.40
2023,03,27,16,36,9.40
2023,03,27,16,37,9.40
2023,03,27,16,38,9.40
2023,03,27,16,39,9.40
2023,03,27,16,40,9.30
2023,03,27,16,41,9.30
2023,03,27,16,42,9.30
2023,03,27,16,43,9.30
2023,03,27,16,44,9.30
2023,03,27,16,45,9.30
2023,03,27,16,46,9.30
2023,03,27,16,47,9.30
2023,03,27,16,48,9.30
2023,03,27,16,49,9.30
2023,03,27,16,50,9.30
2023,03,27,16,51,9.40
2023,03,27,16,52,9.50
2023,03,27,16,53,9.50
2023,03,27,16,54,9.50
2023,03,27,16,55,9.50
2023,03,27,16,56,9.50
2023,03,27,16,57,9.50
2023,03,27,16,58,9.50
2023,03,27,16,59,9.40
2023,03,27,17,00,9.50
2023,03,27,17,01,9.40
2023,03,27,17,02,9.40
2023,03,27,17,03,9.40
2023,03,27,17,04,9.40
2023,03,27,17,05,9.40
2023,03,27,17,06,9.40
2023,03,27,17,07,9.50
2023,03,27,17,08,9.50
2023,03,27,17,09,9.50
2023,03,27,17,10,9.50
2023,03,27,17,11,9.60
2023,03,27,17,12,9.60
2023,03,27,17,13,9.60
2023,03,27,17,14,9.50
2023,03,27,17,15,9.50
2023,03,27,17,16,9.50
2023,03,27,17,17,9.50
2023,03,27,17,18,9.50
2023,03,27,17,19,9.50
2023,03,27,17,20,9.50
2023,03,27,17,21,9.60
2023,03,27,17,22,9.60
2023,03,27,17,23,9.60
2023,03,27,17,24,9.60
2023,03,27,17,25,9.60
2023,03,27,17,26,9.60
2023,03,27,17,27,9.60
2023,03,27,17,28,9.60
2023,03,27,17,29,9.70
2023,03,27,17,30,9.70
2023,03,27,17,31,9.70
2023,03,27,17,32,9.70
2023,03,27,17,33,9.70
2023,03,27,17,34,9.70
2023,03,27,17,35,9.70
2023,03,27,17,36,9.70
2023,03,27,17,37,9.70
2023,03,27,17,38,9.80
2023,03,27,17,39,9.80
2023,03,27,17,40,9.80
2023,03,27,17,41,9.70
2023,03,27,17,42,9.70
2023,03,27,17,43,9.70
2023,03,27,17,44,9.70
2023,03,27,17,45,9.60
2023,03,27,17,46,9.70
2023,03,27,17,47,9.70
2023,03,27,17,48,9.70
2023,03,27,17,49,9.70
2023,03,27,17,50,9.70
2023,03,27,17,51,9.70
2023,03,27,17,52,9.70
2023,03,27,17,53,9.70
2023,03,27,17,54,9.70
2023,03,27,17,55,9.60
2023,03,27,17,56,9.60
2023,03,27,17,57,9.60
2023,03,27,17,58,9.50
2023,03,27,17,59,9.50
2023,03,27,18,00,9.50
2023,03,27,18,01,9.50
2023,03,27,18,02,9.50
2023,03,27,18,03,9.40
2023,03,27,18,04,9.40
2023,03,27,18,05,9.40
2023,03,27,18,06,9.40